Muskegon, MI

12:41 PM EST on February 21, 2017 (GMT -0500)
Muskegon County

Weather History for KMKG - May, 2014

Change the Weather History Date:

Friday, May 23, 2014

  Actual Average Record
Temperature  
Mean Temperature 55 °F 59 °F  
Max Temperature 63 °F 69 °F 87 °F (1972)
Min Temperature 47 °F 49 °F 29 °F (1913)
Degree Days  
Heating Degree Days 10 7  
Month to date heating degree days 246 229  
Since 1 July heating degree days 7151 6447  
Cooling Degree Days 0 1  
Month to date cooling degree days 7 15  
Year to date cooling degree days 7 19  
Growing Degree Days 6 (Base 50)    
Moisture  
Dew Point 44 °F    
Average Humidity 69    
Maximum Humidity 86    
Minimum Humidity 52    
Precipitation  
Precipitation 0.00 in 0.11 in 2.15 in (1955)
Month to date precipitation 3.71 2.43  
Year to date precipitation 13.29 11.45  
Snow  
Snow 0.00 in 0.00 in T in (1955)
Month to date snowfall 0.0 0.0  
Since 1 July snowfall 132.7 93.7  
Snow Depth 0.00 in    
Sea Level Pressure  
Sea Level Pressure 30.17 in    
Wind  
Wind Speed 8 mph (NW)    
Max Wind Speed 17 mph    
Max Gust Speed 23 mph    
Visibility 10 miles    
Events      
T = Trace of Precipitation, MM = Missing Value Source: NWS Daily Summary

Daily Weather History Graph

Daily Weather History Graph

Search for Another Location

Airport or City:

Trip Planner

Search our weather history database for the weather conditions in past years. The results will help you decide how hot, cold, wet, or windy it might be!

Date:

Astronomy

May. 23, 2014 Rise Set
Actual Time 6:13 AM EDT 9:10 PM EDT
Civil Twilight 5:40 AM EDT 9:43 PM EDT
Nautical Twilight 4:57 AM EDT 10:26 PM EDT
Astronomical Twilight 4:07 AM EDT 11:17 PM EDT
Moon 3:16 AM EDT (5/23) 3:54 PM EDT (5/23)
Length of Visible Light 16h 03m
Length of Day
14h 56m
Waning Crescent, 27% of the Moon is Illuminated
May 23
Waning Crescent
May 28
New
Jun 5
First Quarter
Jun 13
Full
Jun 19
Last Quarter

Hourly Weather History & Observations

Time (EDT) Temp. Dew Point Humidity Pressure Visibility Wind Dir Wind Speed Gust Speed Precip Events Conditions
12:55 AM 52.0 °F 46.0 °F 80% 30.14 in 10.0 mi Calm Calm - N/A   Mostly Cloudy
1:55 AM 48.9 °F 45.0 °F 86% 30.14 in 10.0 mi NW 4.6 mph - N/A   Partly Cloudy
2:55 AM 50.0 °F 45.0 °F 83% 30.14 in 10.0 mi North 5.8 mph - N/A   Clear
3:55 AM 50.0 °F 42.1 °F 74% 30.15 in 10.0 mi North 4.6 mph - N/A   Clear
4:55 AM 48.9 °F 42.1 °F 77% 30.14 in 10.0 mi North 5.8 mph - N/A   Clear
5:55 AM 48.9 °F 41.0 °F 74% 30.15 in 10.0 mi North 8.1 mph - N/A   Clear
6:55 AM 50.0 °F 41.0 °F 71% 30.17 in 10.0 mi North 8.1 mph - N/A   Clear
7:55 AM 52.0 °F 42.1 °F 69% 30.18 in 10.0 mi North 9.2 mph - N/A   Clear
8:55 AM 55.0 °F 43.0 °F 64% 30.19 in 10.0 mi North 11.5 mph - N/A   Partly Cloudy
9:55 AM 57.9 °F 44.1 °F 60% 30.19 in 10.0 mi North 10.4 mph - N/A   Partly Cloudy
10:55 AM 57.9 °F 45.0 °F 62% 30.20 in 10.0 mi West 11.5 mph - N/A   Partly Cloudy
11:55 AM 60.1 °F 45.0 °F 57% 30.19 in 10.0 mi WNW 10.4 mph - N/A   Partly Cloudy
12:55 PM 57.9 °F 44.1 °F 60% 30.20 in 10.0 mi WNW 17.3 mph 23.0 mph N/A   Partly Cloudy
1:55 PM 55.9 °F 44.1 °F 64% 30.20 in 10.0 mi West 11.5 mph - N/A   Partly Cloudy
2:55 PM 57.0 °F 44.1 °F 62% 30.19 in 10.0 mi West 9.2 mph - N/A   Partly Cloudy
3:55 PM 63.0 °F 46.9 °F 56% 30.19 in 10.0 mi West 8.1 mph - N/A   Partly Cloudy
4:55 PM 62.1 °F 45.0 °F 53% 30.18 in 10.0 mi West 12.7 mph - N/A   Clear
5:55 PM 62.1 °F 45.0 °F 53% 30.18 in 10.0 mi West 8.1 mph - N/A   Clear
6:55 PM 60.1 °F 44.1 °F 55% 30.17 in 10.0 mi West 8.1 mph - N/A   Clear
7:55 PM 62.1 °F 44.1 °F 52% 30.16 in 10.0 mi WSW 6.9 mph - N/A   Clear
8:55 PM 55.9 °F 43.0 °F 62% 30.17 in 10.0 mi WNW 4.6 mph - N/A   Clear
9:55 PM 50.0 °F 44.1 °F 80% 30.19 in 10.0 mi West 3.5 mph - N/A   Clear
10:55 PM 48.9 °F 43.0 °F 80% 30.19 in 10.0 mi Calm Calm - N/A   Clear
11:55 PM 57.9 °F 42.1 °F 56% 30.19 in 10.0 mi North 4.6 mph - N/A   Clear